Location: Mainz-Finthen
(49.9906°N, 8.1713°E)
Time: 22:24:04
(UTC+00:00)

N. Korean satellite - Pass Details

Date: 01 October 2021
Orbit: 450 x 495 km, 97.3° (Epoch: 21 October)

Event Time Altitude Azimuth Distance (km) Brightness Sun altitude
Rises 03:49:44 0° 28° (NNE) 2,548 10.9 -16.4°
Reaches altitude 10° 03:52:21 10° 49° (NE) 1,671 10.3 -16.0°
Maximum altitude 03:54:47 17° 91° (E) 1,298 9.8 -15.6°
Drops below altitude 10° 03:57:12 10° 134° (SE) 1,676 9.7 -15.2°
Sets 03:59:51 0° 155° (SSE) 2,558 10.4 -14.8°
